sat.trackr.live / text

‹ back to catalog

STARLINK-5345

NORAD 56517 · 2023-065Q

PAYLOAD ACTIVE UNKNOWN

§ Identity

Operator
Country
US
Launch date
2023-05-14
Launch site
AFETR
Launch vehicle
Mass (kg)
RCS (m²)

Purposes: comms

External: N2YO · Heavens-Above · Gunter

§ Orbital elements

Epoch: 2026-05-25T00:41:30.797952Z

Period
94.27 min
Inclination
43.0011°
Eccentricity
0.0001050
Mean motion
15.27574961 rev/d
Perigee alt
482.3 km
Apogee alt
483.8 km
Semi-major
6,861.2 km
B*
7.5982e-6
RAAN
141.4465°
Arg perigee
269.0917°
Mean anomaly
90.9814°
Rev number
16,827

§ Raw data

STARLINK-53451 56517U 23065Q   26145.02882868 -.00000053  00000+0  75982-5 0  99942 56517  43.0011 141.4465 0001050 269.0917  90.9814 15.27574961168272

JSON: /api/v1/satellites/56517 · /tle

For live sub-satellite position, see the globe view (requires WebGL).

§ Visibility from observer

Set your observer location to see the next 7 days of passes ≥ 10°. The values pass through the URL so the page stays shareable.

No JS? Fill the form by hand. The geolocation button needs JavaScript.